Regional Weather Roundup
Issued by NWS

Home | Current Version | Previous Version | Text Only | Print | Product List | Glossary Off
Versions: 1 2 3 4 5 6 7 8 9 10 11 12 13 14 15 16 17 18 19 20 21 22 23 24 25 26 27 28 29 30 31 32 33 34 35 36 37 38 39 40 41 42 43 44 45 46 47 48 49 50

794
ASUS44 KMEG 201900
RWRTN
TENNESSEE HOURLY STATE WEATHER ROUNDUP
NATIONAL WEATHER SERVICE MEMPHIS TN
100 PM CST FRI JAN 20 2017

TNZ002-004-019-021-049-052-054-088>092-202000-
WEST TENNESSEE

CITY           SKY/WX    TMP DP  RH WIND       PRES   REMARKS
MEMPHIS INTL   PTSUNNY   64  55  72 S24G31    29.67F
NWS MEMPHIS      N/A     62 N/A N/A MISG        N/A
JACKSON        CLOUDY    61  56  83 S13G21    29.70F
UNION CITY     CLOUDY    61  61 100 S8        29.66F
PARIS          CLOUDY    57  54  88 S8        29.69F
$$

TNZ008-025-027-028-033-062-065-066-202000-
NORTH MIDDLE TENNESSEE

CITY           SKY/WX    TMP DP  RH WIND       PRES   REMARKS
NASHVILLE      PTSUNNY   66  53  63 S10       29.74F
CLARKSVILLE    CLOUDY    60  53  77 S8        29.72F
SMYRNA         CLOUDY    66  54  65 S8        29.75F
CROSSVILLE     MOSUNNY   60  48  64 VRB5      29.80F
$$

TNZ061-075-076-078-094-096-097-202000-
SOUTH MIDDLE TENNESSEE

CITY           SKY/WX    TMP DP  RH WIND       PRES   REMARKS
TULLAHOMA      PTSUNNY   64  54  68 S8        29.78F
WINCHESTER     PTSUNNY   66  54  63 S8        29.78F
MCMINNVILLE    PTSUNNY   66  54  63 SW8       29.77F
COLUMBIA       PTSUNNY   64  64 100 SW12      29.73F
SHELBYVILLE    PTSUNNY   66  57  72 S12       29.77F
$$

TNZ017-018-042-046-047-202000-
NORTHEAST TENNESSEE

CITY           SKY/WX    TMP DP  RH WIND       PRES   REMARKS
TRI CITIES     CLOUDY    62  54  74 NW7G16    29.81F
$$

TNZ012-013-036-069-073-074-202000-
CENTRAL EAST TENNESSEE

CITY           SKY/WX    TMP DP  RH WIND       PRES   REMARKS
KNOXVILLE      PTSUNNY   66  52  60 SW20      29.79F
OAK RIDGE      MOSUNNY   67  53  61 SW8       29.79F
GATLINBURG     PTSUNNY   70  48  46 SW14      29.79F
$$

TNZ083-085-099-202000-
SOUTHEAST TENNESSEE

CITY           SKY/WX    TMP DP  RH WIND       PRES   REMARKS
CHATTANOOGA    PTSUNNY   68  52  56 S7        29.80F
$$

SKY/WX REPORTED AS FAIR MEANS FEW OR NO CLOUDS BELOW
12 THOUSAND FEET.





USA.gov is the U.S. government's official web portal to all federal, state and local government web resources and services.